カタログに戻る

CZ-10B DEB

運用中LEO
NORAD 69973·DEBRIS·🇨🇳 China

打ち上げ Jul 10, 2026 から Wenchang Space Launch Site

Loading…

次のパス (今後24時間)

TLE

最新Source: Space-Track

元期: Sep 14, 2026, 15:12 UTC

1 69973U 26158B   26257.63390894  .00000022  00000-0  77217-4 0  9992
2 69973  49.9856  21.2237 0006618 172.1141 187.9878 14.24932466  9460

AllMySatでCZ-10B DEBをリアルタイム追跡

Download on the App Store